Home   Weather   Campinas   Past weeks

Flag for Brazil Past Weather in Campinas, São Paulo, Brazil — Yesterday and Last 2 Weeks

Now
90 °F

Scattered clouds.


Feels Like: 86 °F
Forecast: 68 / 87 °F
Wind: 9 mph from North

Location: Campinas Aeroporto

Current Time: Feb 23, 2017 at 3:26:23 pm

Latest Report: Feb 23, 2017 at 2:00 pm


Visibility: N/A

Pressure: 30.01 "Hg (27.79 "Hg at 686m altitude)

Humidity: 12%

Dew Point: 30 °F

Location of CampinasLocation

Past Weather in Campinas — Graph

°F

Campinas Temperature Yesterday

Maximum temperature yesterday: 91 °F (at 3:00 pm)
Minimum temperature yesterday: 70 °F (at 4:00 am)
Average temperature yesterday: 79 °F

High & Low Weather Summary for the Past Weeks

 TemperatureHumidityPressure
High93 °F (Feb 17, 3:00 pm)94% (Feb 18, 7:23 am)30.21 "Hg (Feb 18, 7:23 am)
Low66 °F (Feb 9, 7:00 am)10% (Feb 20, 4:00 pm)29.80 "Hg (Feb 12, 7:00 pm)
Average80 °F38%30.03 "Hg
* Reported Feb 8 3:00 pm — Feb 23 2:00 pm, Campinas, Weather by CustomWeather, © 2017

Note: Actual official high and low records may vary slightly from our data, if they occured in-between our weather recording intervals... More about our weather records

Advertising

Campinas Weather History for the Previous 24 Hours

Scroll right to see more
 ConditionsComfort  
Time TempWeatherWind HumidityBarometerVisibility
2:00 pm
Thu, Feb 23
90 °FScattered clouds.9 mph12%30.01 "HgN/A
1:00 pm88 °FPartly sunny.10 mph15%30.04 "HgN/A
12:00 pm88 °FScattered clouds.8 mph17%30.07 "HgN/A
11:00 am84 °FPassing clouds.12 mph23%30.09 "HgN/A
10:00 am82 °FSunny.9 mph25%30.12 "Hg10 mi
9:00 am81 °FSunny.8 mph28%30.12 "Hg10 mi
8:00 am77 °FSunny.5 mph36%30.09 "Hg10 mi
7:00 am72 °FClear.5 mph65%30.07 "Hg6 mi
6:00 am68 °FClear.6 mph78%30.07 "Hg10 mi
5:00 am70 °FClear.6 mph69%30.04 "Hg10 mi
4:00 am70 °FClear.6 mph64%30.01 "Hg10 mi
3:00 am72 °FClear.6 mph57%30.01 "Hg10 mi
2:00 am72 °FClear.5 mph57%30.01 "Hg10 mi
1:00 am73 °FClear.6 mph50%30.04 "Hg10 mi
12:00 am73 °FClear.8 mph47%30.04 "Hg10 mi
11:00 pm
Wed, Feb 22
75 °FClear.9 mph44%30.07 "Hg10 mi
10:00 pm77 °FClear.9 mph39%30.04 "Hg10 mi
9:00 pm79 °FClear.8 mph34%30.04 "Hg10 mi
8:00 pm82 °FClear.6 mph26%30.01 "Hg10 mi
7:00 pm84 °FClear.5 mph23%29.98 "Hg10 mi
6:00 pm86 °FSunny.7 mph24%29.98 "Hg10 mi
5:00 pm84 °FScattered clouds.7 mph27%29.98 "HgN/A
4:00 pm84 °FScattered showers. Partly sunny.7 mph25%30.01 "HgN/A
3:00 pm91 °FPartly sunny.6 mph13%30.04 "HgN/A
Weather by CustomWeather, © 2017

See weather overviewHow to use our weather pages